Location: Darmstadt
(49.8706°N, 8.6494°E)
Time: 07:31:54
(UTC+01:00)

H-2A R/B - Pass Details

Date: 31 October 2020
Orbit: 733 x 837 km, 98.2° (Epoch: 03 December)

Event Time Altitude Azimuth Distance (km) Brightness Sun altitude
Exits shadow 19:34:50 - 174° (S) 3,141 5.0 -24.8°
Reaches altitude 10° 19:36:38 10° 177° (S) 2,439 4.5 -25.1°
Maximum altitude 19:42:01 64° 258° (WSW) 925 2.5 -25.9°
Drops below altitude 10° 19:47:28 10° 341° (NNW) 2,458 4.9 -26.8°
Sets 19:49:52 0° 344° (NNW) 3,390 5.7 -27.2°
